| time (UTC) | temp F | wind direction | speed MPH | gust MPH | rain 1hr in | rain 24hr in | rain mn in | humidity % | barometer mb |
| 20260906062131 | 75 | 179 | 2.0 | 5.0 | 0.00 | 0.00 | 0.00 | 32 | 1019.6 |
| 20260906061630 | 75 | 217 | 3.0 | 8.0 | 0.00 | 0.00 | 0.00 | 31 | 1019.4 |
| 20260906061130 | 75 | 207 | 3.0 | 8.0 | 0.00 | 0.00 | 0.00 | 31 | 1019.3 |
| 20260906060629 | 75 | 195 | 3.0 | 8.0 | 0.00 | 0.00 | 0.00 | 31 | 1019.4 |
| 20260906055627 | 75 | 165 | 3.0 | 6.0 | 0.00 | 0.00 | 0.00 | 31 | 1019.4 |
| 20260906055129 | 75 | 189 | 3.0 | 6.0 | 0.00 | 0.00 | 0.00 | 32 | 1019.6 |
| 20260906054623 | 74 | 186 | 1.0 | 6.0 | 0.00 | 0.00 | 0.00 | 33 | 1019.6 |
| 20260906054117 | 73 | 165 | 1.0 | 3.0 | 0.00 | 0.00 | 0.00 | 33 | 1019.4 |
| 20260906053611 | 72 | 141 | 1.0 | 2.0 | 0.00 | 0.00 | 0.00 | 34 | 1019.6 |
| 20260906053105 | 73 | 187 | 1.0 | 2.0 | 0.00 | 0.00 | 0.00 | 32 | 1019.4 |
| 20260906052559 | 73 | 187 | 0.0 | 2.0 | 0.00 | 0.00 | 0.00 | 32 | 1019.6 |
| 20260906052057 | 74 | 176 | 0.0 | 2.0 | 0.00 | 0.00 | 0.00 | 31 | 1019.4 |
| 20260906051055 | 75 | 189 | 2.0 | 3.0 | 0.00 | 0.00 | 0.00 | 30 | 1019.4 |
| 20260906050555 | 74 | 177 | 2.0 | 4.0 | 0.00 | 0.00 | 0.00 | 31 | 1019.4 |
| 20260906050052 | 74 | 200 | 2.0 | 4.0 | 0.00 | 0.00 | 0.00 | 30 | 1019.3 |
| 20260906045050 | 75 | 192 | 1.0 | 3.0 | 0.00 | 0.00 | 0.00 | 29 | 1019.6 |
| 20260906044551 | 76 | 158 | 2.0 | 5.0 | 0.00 | 0.00 | 0.00 | 29 | 1019.6 |
| 20260906044050 | 76 | 214 | 2.0 | 5.0 | 0.00 | 0.00 | 0.00 | 29 | 1019.7 |
| 20260906043549 | 76 | 208 | 3.0 | 7.0 | 0.00 | 0.00 | 0.00 | 28 | 1019.7 |
| 20260906043048 | 76 | 168 | 4.0 | 8.0 | 0.00 | 0.00 | 0.00 | 28 | 1019.7 |
| 20260906042547 | 76 | 149 | 4.0 | 8.0 | 0.00 | 0.00 | 0.00 | 28 | 1019.7 |
| 20260906042049 | 76 | 180 | 3.0 | 8.0 | 0.00 | 0.00 | 0.00 | 28 | 1019.6 |
| 20260906041546 | 77 | 175 | 3.0 | 8.0 | 0.00 | 0.00 | 0.00 | 27 | 1019.6 |
| 20260906041050 | 77 | 191 | 3.0 | 10.0 | 0.00 | 0.00 | 0.00 | 27 | 1019.6 |
| 20260906040546 | 77 | 158 | 4.0 | 10.0 | 0.00 | 0.00 | 0.00 | 27 | 1019.6 |
| 20260906040047 | 77 | 169 | 4.0 | 8.0 | 0.00 | 0.00 | 0.00 | 27 | 1019.6 |
| 20260906035547 | 77 | 150 | 3.0 | 8.0 | 0.00 | 0.00 | 0.00 | 26 | 1019.4 |
| 20260906035045 | 77 | 131 | 2.0 | 6.0 | 0.00 | 0.00 | 0.00 | 26 | 1019.4 |
| 20260906034047 | 77 | 103 | 3.0 | 7.0 | 0.00 | 0.00 | 0.00 | 26 | 1019.4 |
| 20260906033543 | 78 | 172 | 3.0 | 7.0 | 0.00 | 0.00 | 0.00 | 26 | 1019.3 |
| 20260906033045 | 78 | 166 | 3.0 | 8.0 | 0.00 | 0.00 | 0.00 | 26 | 1019.3 |
| 20260906032544 | 78 | 138 | 3.0 | 8.0 | 0.00 | 0.00 | 0.00 | 25 | 1019.3 |
| 20260906032041 | 78 | 122 | 2.0 | 6.0 | 0.00 | 0.00 | 0.00 | 25 | 1019.3 |
| 20260906031542 | 78 | 152 | 2.0 | 6.0 | 0.00 | 0.00 | 0.00 | 25 | 1019.2 |
| 20260906031042 | 78 | 185 | 3.0 | 7.0 | 0.00 | 0.00 | 0.00 | 25 | 1019.2 |
| 20260906030544 | 78 | 202 | 3.0 | 8.0 | 0.00 | 0.00 | 0.00 | 25 | 1019.2 |
| 20260906030042 | 78 | 159 | 3.0 | 8.0 | 0.00 | 0.00 | 0.00 | 25 | 1019.1 |
| 20260906025542 | 78 | 207 | 3.0 | 8.0 | 0.00 | 0.00 | 0.00 | 25 | 1019.0 |
| 20260906025042 | 78 | 104 | 3.0 | 8.0 | 0.00 | 0.00 | 0.00 | 25 | 1019.0 |
| 20260906024543 | 78 | 186 | 3.0 | 8.0 | 0.00 | 0.00 | 0.00 | 25 | 1018.9 |
| 20260906023543 | 78 | 162 | 1.0 | 4.0 | 0.00 | 0.00 | 0.00 | 25 | 1018.9 |
| 20260906022541 | 78 | 219 | 1.0 | 6.0 | 0.00 | 0.00 | 0.00 | 24 | 1018.8 |
| 20260906022042 | 79 | 161 | 1.0 | 6.0 | 0.00 | 0.00 | 0.00 | 24 | 1018.8 |
| 20260906021535 | 79 | 164 | 2.0 | 6.0 | 0.00 | 0.00 | 0.00 | 24 | 1018.8 |
| 20260906021030 | 79 | 232 | 2.0 | 9.0 | 0.00 | 0.00 | 0.00 | 23 | 1018.6 |
| 20260906020529 | 80 | 214 | 3.0 | 10.0 | 0.00 | 0.00 | 0.00 | 23 | 1018.6 |
| 20260906015526 | 80 | 134 | 4.0 | 11.0 | 0.00 | 0.00 | 0.00 | 23 | 1018.8 |
| 20260906014524 | 80 | 96 | 2.0 | 8.0 | 0.00 | 0.00 | 0.00 | 22 | 1018.6 |
| 20260906014027 | 81 | 197 | 3.0 | 8.0 | 0.00 | 0.00 | 0.00 | 22 | 1018.6 |
| 20260906013524 | 81 | 195 | 2.0 | 8.0 | 0.00 | 0.00 | 0.00 | 21 | 1018.6 |
| 20260906013024 | 82 | 98 | 1.0 | 7.0 | 0.00 | 0.00 | 0.00 | 21 | 1018.6 |
| 20260906012021 | 83 | 155 | 4.0 | 12.0 | 0.00 | 0.00 | 0.00 | 19 | 1018.8 |
| 20260906011020 | 84 | 203 | 4.0 | 11.0 | 0.00 | 0.00 | 0.00 | 19 | 1018.8 |
| 20260906010519 | 84 | 146 | 6.0 | 16.0 | 0.00 | 0.00 | 0.00 | 19 | 1018.8 |
| 20260906005021 | 86 | 187 | 4.0 | 10.0 | 0.00 | 0.00 | 0.00 | 17 | 1018.8 |
| 20260906004520 | 87 | 81 | 3.0 | 9.0 | 0.00 | 0.00 | 0.00 | 17 | 1018.6 |
| 20260906004013 | 86 | 163 | 4.0 | 13.0 | 0.00 | 0.00 | 0.00 | 18 | 1018.6 |
| 20260906003508 | 87 | 208 | 3.0 | 13.0 | 0.00 | 0.00 | 0.00 | 17 | 1018.8 |
| 20260906003002 | 87 | 134 | 3.0 | 10.0 | 0.00 | 0.00 | 0.00 | 17 | 1018.6 |
| 20260906002456 | 87 | 255 | 4.0 | 10.0 | 0.00 | 0.00 | 0.00 | 17 | 1018.6 |
| 20260906001950 | 87 | 260 | 5.0 | 12.0 | 0.00 | 0.00 | 0.00 | 17 | 1018.9 |
| 20260906001444 | 86 | 166 | 5.0 | 13.0 | 0.00 | 0.00 | 0.00 | 17 | 1018.8 |
| 20260905235420 | 88 | 225 | 5.0 | 13.0 | 0.00 | 0.00 | 0.00 | 17 | 1018.5 |
| 20260905234914 | 87 | 103 | 5.0 | 13.0 | 0.00 | 0.00 | 0.00 | 16 | 1018.4 |
| 20260905233903 | 87 | 115 | 3.0 | 11.0 | 0.00 | 0.00 | 0.00 | 17 | 1018.9 |
| 20260905233357 | 87 | 274 | 3.0 | 11.0 | 0.00 | 0.00 | 0.00 | 17 | 1018.9 |
| 20260905232850 | 86 | 91 | 3.0 | 10.0 | 0.00 | 0.00 | 0.00 | 17 | 1018.8 |
| 20260905232344 | 85 | 258 | 4.0 | 12.0 | 0.00 | 0.00 | 0.00 | 18 | 1018.8 |
| 20260905231838 | 85 | 179 | 4.0 | 12.0 | 0.00 | 0.00 | 0.00 | 17 | 1018.9 |
| 20260905231332 | 86 | 268 | 4.0 | 13.0 | 0.00 | 0.00 | 0.00 | 17 | 1018.8 |
| 20260905230826 | 86 | 292 | 4.0 | 13.0 | 0.00 | 0.00 | 0.00 | 17 | 1018.6 |
| 20260905230319 | 86 | 215 | 4.0 | 11.0 | 0.00 | 0.00 | 0.00 | 17 | 1018.6 |
| 20260905225814 | 87 | 142 | 3.0 | 10.0 | 0.00 | 0.00 | 0.00 | 16 | 1018.6 |
| 20260905225308 | 87 | 226 | 4.0 | 13.0 | 0.00 | 0.00 | 0.00 | 17 | 1018.5 |
| 20260905224803 | 86 | 310 | 6.0 | 14.0 | 0.00 | 0.00 | 0.00 | 18 | 1018.5 |
| 20260905224256 | 86 | 283 | 7.0 | 14.0 | 0.00 | 0.00 | 0.00 | 16 | 1018.6 |
| 20260905223750 | 87 | 264 | 6.0 | 14.0 | 0.00 | 0.00 | 0.00 | 16 | 1018.8 |
| 20260905223244 | 89 | 250 | 4.0 | 11.0 | 0.00 | 0.00 | 0.00 | 15 | 1018.8 |
| 20260905222232 | 88 | 281 | 4.0 | 11.0 | 0.00 | 0.00 | 0.00 | 15 | 1019.0 |
| 20260905221726 | 88 | 238 | 6.0 | 16.0 | 0.00 | 0.00 | 0.00 | 16 | 1018.9 |
| 20260905221221 | 87 | 304 | 8.0 | 17.0 | 0.00 | 0.00 | 0.00 | 15 | 1018.6 |
| 20260905220714 | 88 | 295 | 7.0 | 19.0 | 0.00 | 0.00 | 0.00 | 15 | 1018.6 |
| 20260905220208 | 88 | 239 | 5.0 | 19.0 | 0.00 | 0.00 | 0.00 | 15 | 1018.8 |
| 20260905215156 | 88 | 238 | 6.0 | 18.0 | 0.00 | 0.00 | 0.00 | 15 | 1018.9 |
| 20260905214651 | 87 | 319 | 7.0 | 14.0 | 0.00 | 0.00 | 0.00 | 15 | 1018.6 |
| 20260905214144 | 87 | 223 | 7.0 | 15.0 | 0.00 | 0.00 | 0.00 | 15 | 1019.2 |
| 20260905213638 | 88 | 229 | 5.0 | 16.0 | 0.00 | 0.00 | 0.00 | 14 | 1019.3 |
| 20260905213132 | 88 | 290 | 4.0 | 16.0 | 0.00 | 0.00 | 0.00 | 15 | 1019.3 |
| 20260905212626 | 88 | 278 | 6.0 | 16.0 | 0.00 | 0.00 | 0.00 | 15 | 1019.3 |
| 20260905212121 | 87 | 250 | 8.0 | 21.0 | 0.00 | 0.00 | 0.00 | 15 | 1019.3 |
| 20260905211614 | 88 | 190 | 6.0 | 21.0 | 0.00 | 0.00 | 0.00 | 15 | 1019.1 |
| 20260905211108 | 88 | 225 | 5.0 | 14.0 | 0.00 | 0.00 | 0.00 | 14 | 1019.2 |
| 20260905210602 | 89 | 248 | 4.0 | 13.0 | 0.00 | 0.00 | 0.00 | 14 | 1019.1 |
| 20260905205550 | 88 | 255 | 5.0 | 14.0 | 0.00 | 0.00 | 0.00 | 15 | 1019.3 |
| 20260905204538 | 87 | 257 | 6.0 | 18.0 | 0.00 | 0.00 | 0.00 | 15 | 1019.4 |
| 20260905204032 | 87 | 193 | 5.0 | 17.0 | 0.00 | 0.00 | 0.00 | 15 | 1019.6 |
| 20260905203526 | 87 | 321 | 5.0 | 13.0 | 0.00 | 0.00 | 0.00 | 15 | 1019.4 |
| 20260905203020 | 85 | 240 | 6.0 | 16.0 | 0.00 | 0.00 | 0.00 | 17 | 1019.7 |
| 20260905202515 | 86 | 157 | 7.0 | 18.0 | 0.00 | 0.00 | 0.00 | 16 | 1019.8 |
| 20260905202008 | 87 | 88 | 5.0 | 18.0 | 0.00 | 0.00 | 0.00 | 15 | 1019.7 |
| 20260905201503 | 88 | 253 | 5.0 | 16.0 | 0.00 | 0.00 | 0.00 | 15 | 1019.6 |
| 20260905200956 | 87 | 111 | 6.0 | 14.0 | 0.00 | 0.00 | 0.00 | 15 | 1019.7 |
| 20260905195944 | 86 | 214 | 6.0 | 16.0 | 0.00 | 0.00 | 0.00 | 16 | 1019.8 |
| 20260905195438 | 85 | 103 | 6.0 | 16.0 | 0.00 | 0.00 | 0.00 | 17 | 1020.0 |
| 20260905194933 | 86 | 203 | 4.0 | 13.0 | 0.00 | 0.00 | 0.00 | 16 | 1020.0 |
| 20260905194426 | 86 | 87 | 3.0 | 12.0 | 0.00 | 0.00 | 0.00 | 16 | 1019.9 |
| 20260905193414 | 86 | 217 | 3.0 | 11.0 | 0.00 | 0.00 | 0.00 | 16 | 1020.0 |
| 20260905192908 | 87 | 229 | 4.0 | 18.0 | 0.00 | 0.00 | 0.00 | 16 | 1020.0 |
| 20260905192402 | 87 | 177 | 5.0 | 18.0 | 0.00 | 0.00 | 0.00 | 16 | 1020.0 |
| 20260905191856 | 88 | 234 | 5.0 | 18.0 | 0.00 | 0.00 | 0.00 | 15 | 1020.2 |
| 20260905191351 | 87 | 270 | 5.0 | 14.0 | 0.00 | 0.00 | 0.00 | 15 | 1020.0 |
| 20260905190844 | 87 | 232 | 5.0 | 14.0 | 0.00 | 0.00 | 0.00 | 15 | 1020.0 |
| 20260905190338 | 87 | 188 | 5.0 | 16.0 | 0.00 | 0.00 | 0.00 | 15 | 1020.2 |
| 20260905185832 | 87 | 143 | 4.0 | 16.0 | 0.00 | 0.00 | 0.00 | 15 | 1020.2 |
| 20260905185326 | 86 | 234 | 5.0 | 17.0 | 0.00 | 0.00 | 0.00 | 16 | 1020.3 |
| 20260905184820 | 86 | 124 | 6.0 | 17.0 | 0.00 | 0.00 | 0.00 | 16 | 1020.3 |
| 20260905184314 | 86 | 211 | 5.0 | 13.0 | 0.00 | 0.00 | 0.00 | 15 | 1020.2 |
| 20260905183808 | 85 | 231 | 5.0 | 13.0 | 0.00 | 0.00 | 0.00 | 15 | 1020.3 |
| 20260905183309 | 85 | 181 | 5.0 | 17.0 | 0.00 | 0.00 | 0.00 | 15 | 1020.5 |
| 20260905181809 | 85 | 72 | 5.0 | 18.0 | 0.00 | 0.00 | 0.00 | 15 | 1020.5 |
| 20260905181311 | 85 | 86 | 4.0 | 18.0 | 0.00 | 0.00 | 0.00 | 15 | 1020.6 |
| 20260905180809 | 85 | 334 | 3.0 | 10.0 | 0.00 | 0.00 | 0.00 | 15 | 1020.5 |
| 20260905180310 | 85 | 156 | 3.0 | 11.0 | 0.00 | 0.00 | 0.00 | 15 | 1020.5 |
| 20260905175812 | 84 | 56 | 4.0 | 12.0 | 0.00 | 0.00 | 0.00 | 15 | 1020.6 |
| 20260905175312 | 84 | 108 | 5.0 | 17.0 | 0.00 | 0.00 | 0.00 | 15 | 1020.6 |
| 20260905174806 | 83 | 167 | 6.0 | 17.0 | 0.00 | 0.00 | 0.00 | 17 | 1020.5 |
| 20260905174303 | 83 | 124 | 6.0 | 14.0 | 0.00 | 0.00 | 0.00 | 16 | 1020.5 |
| 20260905173803 | 83 | 93 | 6.0 | 13.0 | 0.00 | 0.00 | 0.00 | 16 | 1020.5 |
| 20260905173304 | 83 | 173 | 6.0 | 14.0 | 0.00 | 0.00 | 0.00 | 16 | 1020.6 |
| 20260905172804 | 83 | 158 | 6.0 | 14.0 | 0.00 | 0.00 | 0.00 | 16 | 1020.6 |
| 20260905172307 | 83 | 158 | 6.0 | 14.0 | 0.00 | 0.00 | 0.00 | 16 | 1020.5 |
| 20260905171805 | 83 | 165 | 6.0 | 14.0 | 0.00 | 0.00 | 0.00 | 16 | 1020.3 |
| 20260905171306 | 83 | 196 | 5.0 | 12.0 | 0.00 | 0.00 | 0.00 | 16 | 1020.5 |
| 20260905170805 | 83 | 169 | 5.0 | 12.0 | 0.00 | 0.00 | 0.00 | 15 | 1020.3 |
| 20260905170306 | 82 | 198 | 5.0 | 11.0 | 0.00 | 0.00 | 0.00 | 15 | 1020.3 |
| 20260905165803 | 82 | 98 | 5.0 | 11.0 | 0.00 | 0.00 | 0.00 | 16 | 1020.3 |
| 20260905165306 | 81 | 93 | 6.0 | 13.0 | 0.00 | 0.00 | 0.00 | 15 | 1020.2 |
| 20260905164803 | 81 | 179 | 6.0 | 16.0 | 0.00 | 0.00 | 0.00 | 15 | 1020.2 |
| 20260905164302 | 81 | 157 | 5.0 | 16.0 | 0.00 | 0.00 | 0.00 | 15 | 1020.2 |
| 20260905163804 | 81 | 114 | 5.0 | 18.0 | 0.00 | 0.00 | 0.00 | 15 | 1020.2 |
| 20260905163302 | 80 | 179 | 5.0 | 18.0 | 0.00 | 0.00 | 0.00 | 14 | 1020.2 |
| 20260905162804 | 81 | 82 | 3.0 | 11.0 | 0.00 | 0.00 | 0.00 | 15 | 1020.1 |
| 20260905162306 | 81 | 125 | 3.0 | 11.0 | 0.00 | 0.00 | 0.00 | 14 | 1020.1 |
| 20260905161804 | 80 | 284 | 4.0 | 12.0 | 0.00 | 0.00 | 0.00 | 16 | 1020.0 |
| 20260905161302 | 80 | 124 | 4.0 | 12.0 | 0.00 | 0.00 | 0.00 | 16 | 1019.9 |
| 20260905160803 | 80 | 30 | 4.0 | 12.0 | 0.00 | 0.00 | 0.00 | 17 | 1020.0 |
| 20260905155801 | 80 | 140 | 4.0 | 10.0 | 0.00 | 0.00 | 0.00 | 18 | 1020.0 |
| 20260905155300 | 79 | 162 | 4.0 | 13.0 | 0.00 | 0.00 | 0.00 | 19 | 1019.9 |
| 20260905154258 | 78 | 137 | 5.0 | 15.0 | 0.00 | 0.00 | 0.00 | 20 | 1019.9 |
| 20260905153756 | 78 | 206 | 5.0 | 15.0 | 0.00 | 0.00 | 0.00 | 20 | 1019.9 |
| 20260905153300 | 78 | 163 | 4.0 | 11.0 | 0.00 | 0.00 | 0.00 | 19 | 1019.9 |
| 20260905152800 | 78 | 122 | 5.0 | 11.0 | 0.00 | 0.00 | 0.00 | 18 | 1019.9 |
| 20260905151242 | 77 | 167 | 5.0 | 15.0 | 0.00 | 0.00 | 0.00 | 17 | 1019.9 |
| 20260905150736 | 77 | 203 | 6.0 | 13.0 | 0.00 | 0.00 | 0.00 | 17 | 1020.0 |
| 20260905145724 | 76 | 179 | 6.0 | 14.0 | 0.00 | 0.00 | 0.00 | 16 | 1019.9 |
| 20260905144713 | 76 | 142 | 4.0 | 10.0 | 0.00 | 0.00 | 0.00 | 18 | 1019.9 |
| 20260905144212 | 76 | 138 | 5.0 | 12.0 | 0.00 | 0.00 | 0.00 | 18 | 1019.8 |
| 20260905143712 | 75 | 256 | 6.0 | 12.0 | 0.00 | 0.00 | 0.00 | 18 | 1019.7 |
| 20260905143214 | 75 | 180 | 5.0 | 12.0 | 0.00 | 0.00 | 0.00 | 17 | 1019.7 |
| 20260905142713 | 75 | 147 | 5.0 | 13.0 | 0.00 | 0.00 | 0.00 | 16 | 1019.6 |
| 20260905142213 | 75 | 204 | 5.0 | 13.0 | 0.00 | 0.00 | 0.00 | 15 | 1019.7 |
| 20260905141713 | 74 | 150 | 5.0 | 13.0 | 0.00 | 0.00 | 0.00 | 15 | 1019.6 |
| 20260905141212 | 74 | 184 | 5.0 | 14.0 | 0.00 | 0.00 | 0.00 | 15 | 1019.6 |
| 20260905140712 | 74 | 199 | 6.0 | 16.0 | 0.00 | 0.00 | 0.00 | 14 | 1019.4 |
| 20260905140214 | 73 | 160 | 6.0 | 16.0 | 0.00 | 0.00 | 0.00 | 13 | 1019.4 |
| 20260905135713 | 73 | 203 | 4.0 | 14.0 | 0.00 | 0.00 | 0.00 | 13 | 1019.4 |
| 20260905135212 | 72 | 179 | 3.0 | 14.0 | 0.00 | 0.00 | 0.00 | 14 | 1019.4 |
| 20260905134719 | 0 | 0.0 | 0.0 | 0.00 | 0.00 | 0.00 | 1019.4 | ||
| 20260905134215 | 0 | 0.0 | 0.0 | 0.00 | 0.00 | 0.00 | 1019.2 | ||
| 20260905133708 | 0 | 0.0 | 0.0 | 0.00 | 0.00 | 0.00 | 1019.1 | ||
| 20260905133121 | 0 | 0.0 | 0.0 | 0.00 | 0.00 | 0.00 | 1019.1 | ||
| 20260905132613 | 0 | 0.0 | 0.0 | 0.00 | 0.00 | 0.00 | 1019.1 | ||
| 20260905131010 | 0 | 0.0 | 0.0 | 0.00 | 0.00 | 0.00 | 1018.9 | ||
| 20260905130509 | 0 | 0.0 | 0.0 | 0.00 | 0.00 | 0.00 | 1019.0 | ||
| 20260905125915 | 0 | 0.0 | 0.0 | 0.00 | 0.00 | 0.00 | 1018.9 | ||
| 20260905125413 | 0 | 0.0 | 0.0 | 0.00 | 0.00 | 0.00 | 1018.9 | ||
| 20260905124913 | 0 | 0.0 | 0.0 | 0.00 | 0.00 | 0.00 | 1018.8 | ||
| 20260905124410 | 0 | 0.0 | 0.0 | 0.00 | 0.00 | 0.00 | 1018.6 | ||
| 20260905123311 | 0 | 0.0 | 0.0 | 0.00 | 0.00 | 0.00 | 1018.6 | ||
| 20260905122812 | 0 | 0.0 | 0.0 | 0.00 | 0.00 | 0.00 | 1018.5 | ||
| 20260905122306 | 0 | 0.0 | 0.0 | 0.00 | 0.00 | 0.00 | 1018.5 | ||
| 20260905121713 | 0 | 212 | 3.0 | 6.0 | 0.00 | 0.00 | 0.00 | 1018.5 | |
| 20260905121205 | 72 | 212 | 3.0 | 7.0 | 0.00 | 0.00 | 0.00 | 14 | 1018.4 |
| 20260905120656 | 72 | 212 | 3.0 | 12.0 | 0.00 | 0.00 | 0.00 | 14 | 1018.4 |
| 20260905120150 | 72 | 172 | 3.0 | 12.0 | 0.00 | 0.00 | 0.00 | 14 | 1018.5 |
| 20260905115644 | 73 | 193 | 3.0 | 8.0 | 0.00 | 0.00 | 0.00 | 14 | 1018.5 |
| 20260905115137 | 73 | 169 | 3.0 | 8.0 | 0.00 | 0.00 | 0.00 | 15 | 1018.5 |
| 20260905114631 | 73 | 207 | 3.0 | 11.0 | 0.00 | 0.00 | 0.00 | 15 | 1018.5 |
| 20260905114126 | 73 | 155 | 3.0 | 11.0 | 0.00 | 0.00 | 0.00 | 15 | 1018.5 |
| 20260905113619 | 73 | 156 | 3.0 | 8.0 | 0.00 | 0.00 | 0.00 | 16 | 1018.5 |
| 20260905113113 | 74 | 188 | 3.0 | 9.0 | 0.00 | 0.00 | 0.00 | 17 | 1018.4 |
| 20260905112607 | 74 | 185 | 4.0 | 12.0 | 0.00 | 0.00 | 0.00 | 16 | 1018.3 |
| 20260905112101 | 74 | 159 | 5.0 | 12.0 | 0.00 | 0.00 | 0.00 | 16 | 1018.4 |
| 20260905111556 | 74 | 133 | 4.0 | 15.0 | 0.00 | 0.00 | 0.00 | 16 | 1018.4 |
| 20260905111049 | 74 | 180 | 4.0 | 15.0 | 0.00 | 0.00 | 0.00 | 16 | 1018.3 |
| 20260905110542 | 74 | 136 | 4.0 | 10.0 | 0.00 | 0.00 | 0.00 | 16 | 1018.2 |
| 20260905110037 | 74 | 176 | 5.0 | 15.0 | 0.00 | 0.00 | 0.00 | 16 | 1018.2 |
| 20260905105531 | 74 | 105 | 5.0 | 15.0 | 0.00 | 0.00 | 0.00 | 16 | 1018.2 |
| 20260905105025 | 74 | 174 | 5.0 | 11.0 | 0.00 | 0.00 | 0.00 | 16 | 1018.2 |
| 20260905104519 | 74 | 169 | 4.0 | 11.0 | 0.00 | 0.00 | 0.00 | 16 | 1018.2 |
| 20260905104013 | 74 | 165 | 3.0 | 11.0 | 0.00 | 0.00 | 0.00 | 16 | 1018.2 |
| 20260905103507 | 74 | 128 | 3.0 | 10.0 | 0.00 | 0.00 | 0.00 | 17 | 1018.2 |
| 20260905103001 | 74 | 122 | 3.0 | 9.0 | 0.00 | 0.00 | 0.00 | 16 | 1018.3 |
| 20260905102455 | 74 | 207 | 3.0 | 11.0 | 0.00 | 0.00 | 0.00 | 15 | 1018.2 |
| 20260905101455 | 75 | 172 | 4.0 | 12.0 | 0.00 | 0.00 | 0.00 | 15 | 1018.3 |
| 20260905100958 | 75 | 210 | 4.0 | 12.0 | 0.00 | 0.00 | 0.00 | 13 | 1018.3 |
| 20260905100455 | 75 | 153 | 4.0 | 13.0 | 0.00 | 0.00 | 0.00 | 13 | 1018.3 |
| 20260905095951 | 75 | 152 | 5.0 | 13.0 | 0.00 | 0.00 | 0.00 | 13 | 1018.3 |
| 20260905095451 | 75 | 148 | 5.0 | 15.0 | 0.00 | 0.00 | 0.00 | 13 | 1018.2 |
| 20260905094951 | 75 | 207 | 5.0 | 15.0 | 0.00 | 0.00 | 0.00 | 13 | 1018.2 |
| 20260905094452 | 75 | 82 | 3.0 | 11.0 | 0.00 | 0.00 | 0.00 | 12 | 1018.3 |
| 20260905093448 | 75 | 256 | 4.0 | 12.0 | 0.00 | 0.00 | 0.00 | 13 | 1018.2 |
| 20260905092949 | 75 | 113 | 4.0 | 11.0 | 0.00 | 0.00 | 0.00 | 12 | 1018.1 |
| 20260905092449 | 74 | 140 | 4.0 | 11.0 | 0.00 | 0.00 | 0.00 | 13 | 1018.1 |
| 20260905091945 | 74 | 162 | 2.0 | 11.0 | 0.00 | 0.00 | 0.00 | 13 | 1018.2 |
| 20260905091446 | 74 | 153 | 3.0 | 10.0 | 0.00 | 0.00 | 0.00 | 11 | 1018.2 |
| 20260905090947 | 75 | 125 | 4.0 | 12.0 | 0.00 | 0.00 | 0.00 | 10 | 1018.1 |
| 20260905090446 | 75 | 98 | 4.0 | 12.0 | 0.00 | 0.00 | 0.00 | 12 | 1018.1 |
| 20260905085947 | 75 | 188 | 4.0 | 10.0 | 0.00 | 0.00 | 0.00 | 12 | 1018.1 |
| 20260905085445 | 75 | 195 | 4.0 | 12.0 | 0.00 | 0.00 | 0.00 | 12 | 1018.1 |
| 20260905084939 | 75 | 184 | 3.0 | 12.0 | 0.00 | 0.00 | 0.00 | 12 | 1018.1 |
| 20260905084434 | 75 | 195 | 2.0 | 8.0 | 0.00 | 0.00 | 0.00 | 11 | 1018.1 |
| 20260905083932 | 75 | 210 | 3.0 | 9.0 | 0.00 | 0.00 | 0.00 | 11 | 1018.1 |
| 20260905083431 | 75 | 120 | 5.0 | 14.0 | 0.00 | 0.00 | 0.00 | 11 | 1018.3 |
| 20260905082933 | 75 | 194 | 6.0 | 14.0 | 0.00 | 0.00 | 0.00 | 10 | 1018.3 |
| 20260905082432 | 75 | 153 | 6.0 | 14.0 | 0.00 | 0.00 | 0.00 | 10 | 1018.3 |
| 20260905081433 | 74 | 208 | 4.0 | 11.0 | 0.00 | 0.00 | 0.00 | 9 | 1018.4 |
| 20260905080932 | 74 | 160 | 4.0 | 14.0 | 0.00 | 0.00 | 0.00 | 9 | 1018.5 |
| 20260905080432 | 75 | 179 | 6.0 | 14.0 | 0.00 | 0.00 | 0.00 | 9 | 1018.4 |
| 20260905075933 | 74 | 156 | 5.0 | 13.0 | 0.00 | 0.00 | 0.00 | 9 | 1018.4 |
| 20260905075431 | 74 | 182 | 4.0 | 13.0 | 0.00 | 0.00 | 0.00 | 9 | 1018.4 |
| 20260905074933 | 74 | 190 | 4.0 | 11.0 | 0.00 | 0.00 | 0.00 | 9 | 1018.5 |
| 20260905074427 | 74 | 201 | 3.0 | 10.0 | 0.00 | 0.00 | 0.00 | 9 | 1018.5 |
| 20260905073928 | 74 | 195 | 4.0 | 12.0 | 0.00 | 0.00 | 0.00 | 9 | 1018.6 |
| 20260905073427 | 74 | 173 | 4.0 | 12.0 | 0.00 | 0.00 | 0.00 | 8 | 1018.5 |
| 20260905072927 | 74 | 172 | 2.0 | 9.0 | 0.00 | 0.00 | 0.00 | 8 | 1018.5 |
| 20260905072429 | 74 | 146 | 3.0 | 9.0 | 0.00 | 0.00 | 0.00 | 8 | 1018.5 |
| 20260905071928 | 74 | 214 | 5.0 | 12.0 | 0.00 | 0.00 | 0.00 | 8 | 1018.5 |
| 20260905070929 | 74 | 148 | 3.0 | 9.0 | 0.00 | 0.00 | 0.00 | 8 | 1018.5 |
| 20260905070429 | 74 | 217 | 3.0 | 7.0 | 0.00 | 0.00 | 0.00 | 8 | 1018.4 |
| 20260905065924 | 74 | 158 | 4.0 | 8.0 | 0.00 | 0.00 | 0.00 | 7 | 1018.4 |
| 20260905065424 | 74 | 185 | 4.0 | 8.0 | 0.00 | 0.00 | 0.00 | 7 | 1018.4 |
| 20260905064924 | 74 | 155 | 3.0 | 7.0 | 0.00 | 0.00 | 0.00 | 8 | 1018.3 |
| 20260905063925 | 74 | 151 | 2.0 | 8.0 | 0.00 | 0.00 | 0.00 | 7 | 1018.2 |
| 20260905063425 | 74 | 183 | 2.0 | 8.0 | 0.00 | 0.00 | 0.00 | 7 | 1018.2 |